Address 0xc406b57503a63c0aec1463c0bb93c17cecae59ee

 
 
Txn Hash
Block
From
To
Value [Txn Fee]
0x9ac96f5f762cadf3125dab7f1cf1df616459882d8beacc57a8246a99a522378794140392021-07-23 17:18:434 mins ago0xc406b57503a63c0aec1463c0bb93c17cecae59eeOUT 0xbf8a8829a67d9de80c4d106ce92fc0de362e7dfe0 BNB0.000184135
0xd7efcdac88c4e1d8e27651c5d52464065f577dbdc57386d688cdc520927b449a94139412021-07-23 17:13:499 mins ago0xc406b57503a63c0aec1463c0bb93c17cecae59eeOUT 0xdb49ea5e44ffce14661f47d8a43a14459f46e1220 BNB0.000184245
0x5e8f3a8eabbf71f25364afa7e242c530191dd2357e21232535361d318e3b791c94137642021-07-23 17:04:5818 mins ago0xc406b57503a63c0aec1463c0bb93c17cecae59eeOUT 0x366dbd9f3ee341cf0b2ee36adac9da842f4f25540 BNB0.000184135
0x56db12f673c7443a7b93de07f88cc0d36fed026a4f1b2dc68a180d3692e89bb394137262021-07-23 17:03:0420 mins ago0xc406b57503a63c0aec1463c0bb93c17cecae59eeOUT 0xdb49ea5e44ffce14661f47d8a43a14459f46e1220 BNB0.00018419
0x71f4b1a915003ae6e1d099f3e48d48747cd2cad19640d0a1547e05e1f36c8baa94136062021-07-23 16:57:0426 mins ago0xc406b57503a63c0aec1463c0bb93c17cecae59eeOUT 0xbf8a8829a67d9de80c4d106ce92fc0de362e7dfe0 BNB0.0002028015
0x12a2fae277eddc0cb3a05917ad8bac26c8f12bc0dea9b2b095bbf200b6198d0494135752021-07-23 16:55:3128 mins ago0xc406b57503a63c0aec1463c0bb93c17cecae59eeOUT 0xbd2ec79f2a467813efefe02b8b195ed8187889060 BNB0.000184425
0x0e3be862df9f4dcccdb7b907f0f3fc9283bbb2954cd4db3803d96714a95fd61894134292021-07-23 16:48:1235 mins ago0xc406b57503a63c0aec1463c0bb93c17cecae59eeOUT 0x3456edc9bc0639427b08f1b9711eba977e2e2f070 BNB0.00018425
0xc0edbf79c48bdb0755ab149198014dbaa269d9ac9d1b7975fe370d7005c2d28b94134152021-07-23 16:47:3036 mins ago0xc406b57503a63c0aec1463c0bb93c17cecae59eeOUT 0x3456edc9bc0639427b08f1b9711eba977e2e2f070 BNB0.0002118
0x3c3710bb385b5a50abb76c26e6fb6f44b30ffffbcacf90b2e81b8d7aceb1ff5b94133522021-07-23 16:44:2139 mins ago0xc406b57503a63c0aec1463c0bb93c17cecae59eeOUT 0xbf8a8829a67d9de80c4d106ce92fc0de362e7dfe0 BNB0.000184185
0x65c60f0c8fd8f906411bfb0b4064fa6e3801826e9b9761f800a78a86ae98d0b994133442021-07-23 16:43:5739 mins ago0xc406b57503a63c0aec1463c0bb93c17cecae59eeOUT 0xcf43aa6ac1dc40f82e767985ccf7027ae37035750 BNB0.0002162145
0xee938f60a7b21d7d3e7918bc97fbc2c30293ff3aabdca92addd04ebe312a752d94132822021-07-23 16:40:5142 mins ago0xc406b57503a63c0aec1463c0bb93c17cecae59eeOUT 0x403473f684d791a3646c7539158f11784977d2c10 BNB0.000221015
0x81dc1f0d0c6749c3d77142005698114b9f3b87ebbe532c67b5e737e1577fd21094132612021-07-23 16:39:4843 mins ago0xc406b57503a63c0aec1463c0bb93c17cecae59eeOUT 0xdb49ea5e44ffce14661f47d8a43a14459f46e1220 BNB0.000175255
0xcde632c33131c8ec59614760f47348891bf070b4af150c1f1bfb3fdac86cb80e94132402021-07-23 16:38:4544 mins ago0xc406b57503a63c0aec1463c0bb93c17cecae59eeOUT 0x3456edc9bc0639427b08f1b9711eba977e2e2f070 BNB0.000220968
0xeead512e7fef70e34855f2d82f1f0bdc06f2855906b2a69dd99cc258b20fdc4f94130802021-07-23 16:30:4452 mins ago0xc406b57503a63c0aec1463c0bb93c17cecae59eeOUT 0xdb49ea5e44ffce14661f47d8a43a14459f46e1220 BNB0.00018431
0x4d655b7b0103882f26b6d83ffe296493cbe6a49d7a2553529e2492d1c35307de94130542021-07-23 16:29:2654 mins ago0xc406b57503a63c0aec1463c0bb93c17cecae59eeOUT 0x54d57db12e6dbe00c6595d762b98f738a6de790d0 BNB0.000221425
0x8cc6e32c9c25d76b80f815e535784b257f5719078f5a40ea0a41ca38a11addb094130432021-07-23 16:28:5354 mins ago0xc406b57503a63c0aec1463c0bb93c17cecae59eeOUT 0x3456edc9bc0639427b08f1b9711eba977e2e2f070 BNB0.0002921226
0x49ff5be8621c37cc8a4ac9b29fccecaaf5cf799b5e7aadacd666a668b46ea9c594130312021-07-23 16:28:1755 mins ago0xc406b57503a63c0aec1463c0bb93c17cecae59eeOUT 0xdb49ea5e44ffce14661f47d8a43a14459f46e1220 BNB0.000221425
0x90c3cb48349c1863b19bf01c6ed2d81757f7cd0bb4d555eaed486ba3930f2c6f94129422021-07-23 16:23:4559 mins ago0xc406b57503a63c0aec1463c0bb93c17cecae59eeOUT 0x6cf963760972db30464a7fb9189415b977f431850 BNB0.000211625
0x7ad676d4a19408c618dd06036f7a4a4c380f0cff0cbb452a69478effa91feeb894127492021-07-23 16:14:061 hr 9 mins ago0xc406b57503a63c0aec1463c0bb93c17cecae59eeOUT 0x74d8fa1d4528351df94149f582d1beb583abcbfe0 BNB0.000230245
0x022aabb703172d1065ab9850f7f54f40eb117296fc20cb361e632d15f1bf10fe94127312021-07-23 16:13:121 hr 10 mins ago0xc406b57503a63c0aec1463c0bb93c17cecae59eeOUT 0xd890c7f2f66ec36f9746d96ec1e163dbdda18c9e0 BNB0.0002163318
0x3bbbd2c5b7c2eb8dcb876d9619444e0a22b1dacd15ffeb58ca245f2d60a073dc94126682021-07-23 16:10:031 hr 13 mins ago0xc406b57503a63c0aec1463c0bb93c17cecae59eeOUT 0xbf8a8829a67d9de80c4d106ce92fc0de362e7dfe0 BNB0.000220835
0x8e66866f7cc44bb0d499ca2820cae42630a62aad5929463cd01521c74e337b3b94126222021-07-23 16:07:401 hr 15 mins ago0xc406b57503a63c0aec1463c0bb93c17cecae59eeOUT 0xc18a3efae1233c1dd76ff4926ced399c1e4a8f230 BNB0.000175255
0x0d031212fdf7924a3bc6a51ccaafe14bc793aeb26427e5a2c997349f5d67d73c94126122021-07-23 16:07:101 hr 16 mins ago0xc406b57503a63c0aec1463c0bb93c17cecae59eeOUT 0x3456edc9bc0639427b08f1b9711eba977e2e2f070 BNB0.00018425
0x70480c0a247faa0c350d64cfdae3e3f2bd3ba84ed38e1542c39c37a616f2efd294126032021-07-23 16:06:431 hr 16 mins ago0xc406b57503a63c0aec1463c0bb93c17cecae59eeOUT 0xbf8a8829a67d9de80c4d106ce92fc0de362e7dfe0 BNB0.000212075
0xaaff9f09e95d9b6f4989a8db294dcf4df8f947b5770929a93d0e8a124e3d79d894125942021-07-23 16:06:161 hr 17 mins ago0xc406b57503a63c0aec1463c0bb93c17cecae59eeOUT 0x366dbd9f3ee341cf0b2ee36adac9da842f4f25540 BNB0.00021225
[ Download CSV Export 
Parent Txn Hash Block From To Value
Loading

Contract Name:
0 BNB

Compiler Version
0

Optimization Enabled:
0 BNB

Other Settings:
-NA-
Block Transaction Gas Used Reward
Age Block Fee Address BC Fee Address Voting Power Jailed Incoming
Block Uncle Number Difficulty Gas Used Reward
Loading
Loading
Make sure to use the "Vote Down" button for any spammy posts, and the "Vote Up" for interesting conversations.